Погода в Самарском

Россия / Самарская область     53°02′08″N   50°14′45″E
темп.,
°C
ветер,
м/с
пор.,
м/с
влажн.,
%
обл.,
%
осадки,
мм/ч
давл.,
гПа
погр.,
м
6 марта, сб
сб601:00−10з239020 0.0 101221
04:00−10зюз339527 0.0 101423
07:00−12зюз349268 0.0 101440
10:00−9з469355 0.0 1015202
13:00−7з359175 0.0 1015297
16:00−5сз248887 0.0 1015428
19:00−10с2284100 0.0 101521
22:00−12ссв2384100 0.0 101521
7 марта, вс
вс701:00−13св2285100 0.0 101420
04:00−16ссв128593 0.0 101320
07:00−18ссз11871 0.0 101320
10:00−13зюз23841 0.0 1014119
13:00−10зюз46910 0.0 1013277
16:00−9юз589211 0.0 1012370
19:00−12ююз5119457 0.0 1011207
22:00−9ююз7149078 0.0 1010452
8 марта, пн
пн801:00−7ююз101793100 0.4 1005703
04:00−5ююз101793100 1.4 1002961
07:00−4юз101694100 1.1 1001949
10:00−5зюз4689100 1.3 1003285
13:00−2ююз488653 0.0 1003819
16:00−1ююз9149576 1.4 1001932
19:00−1ююз91689100 0.2 998857
22:00−6зюз8147998 1.6 1000789
9 марта, вт
вт901:00−11юз715880 0.0 1003438
04:00−10зюз7148933 0.0 1005413
07:00−12зюз6139140 0.0 1008291
10:00−11зюз6109129 0.0 1010417
13:00−9зюз588990 0.0 1011589
16:00−9зюз578995 0.1 1011691
19:00−12юз3495100 0.1 101257
22:00−12з339699 0.1 101372
10 марта, ср
ср1001:00−14сз2296100 0.1 101323
04:00−18зсз349597 0.1 101449
07:00−20зсз349860 0.0 101557
10:00−17зсз469561 0.0 1016241
13:00−14з579292 0.0 1017447
16:00−14з579096 0.1 1018623
19:00−18з3495100 0.1 101967
22:00−21зсз229891 0.1 102120